Lid_Strength_Index
3 4 4 4 4 3 3 3 4 4 4 4 4 4 4 4 6 9 10 8 7 4 6 10 11 11 11 13 13 14 19 20 19 19 18 15 15 12 12 13 12 11 11 11 10
4 4 4 4 4 3 3 4 4 4 4 4 5 5 4 4 10 11 7 5 4 4 10 11 12 12 14 13 14 16 19 19 16 16 16 14 14 13 13 13 13 12 11 11 11
4 4 4 4 4 4 4 4 4 4 4 4 5 5 5 6 14 13 5 5 5 7 9 10 11 12 14 14 14 15 18 16 15 14 13 13 14 12 13 14 14 14 13 12 12
4 4 4 4 4 4 4 4 4 5 4 4 5 5 5 9 19 11 5 5 6 9 10 11 12 14 16 16 14 17 15 14 13 12 13 14 12 13 13 15 13 14 13 13 13
4 4 4 4 4 4 4 4 4 4 5 5 5 4 10 15 15 9 7 7 9 10 12 12 14 15 16 16 15 16 15 13 13 13 13 13 14 14 16 14 14 13 13 13 13
3 3 4 4 4 4 4 4 4 4 5 5 4 5 14 18 11 10 10 10 10 11 12 12 13 13 15 15 15 14 14 14 13 13 13 15 15 14 15 14 14 14 14 13 12
3 3 4 4 4 4 4 4 4 4 5 5 4 10 15 16 11 11 10 11 10 11 12 11 11 13 14 15 13 13 16 15 15 15 15 15 16 16 15 14 15 14 14 12 11
3 3 3 4 4 4 4 5 5 5 5 5 5 13 17 12 12 11 11 11 10 10 10 10 10 12 13 13 15 16 16 20 16 15 15 15 19 15 14 14 15 14 13 12 12
3 3 3 4 4 4 4 6 5 5 6 6 12 15 18 9 13 12 11 12 11 11 10 9 11 14 14 17 19 18 21 20 19 16 16 16 17 14 13 14 14 14 14 13 12
3 3 4 4 4 3 5 6 7 8 10 11 13 17 15 16 14 12 11 11 12 12 12 13 15 16 17 17 22 20 21 20 20 18 17 17 16 14 13 14 14 14 14 14 13
3 3 4 4 4 4 9 13 15 15 14 17 17 17 16 14 12 13 12 12 13 14 17 15 17 19 17 16 17 18 19 20 19 17 18 17 16 14 13 14 15 15 15 15 14
3 4 4 4 4 7 12 14 14 14 17 15 15 15 14 14 16 14 12 15 15 17 16 17 18 16 15 15 16 17 19 20 19 17 18 18 17 15 13 15 15 15 15 15 14
3 3 4 4 6 10 13 14 11 12 17 16 16 16 16 15 16 16 14 15 16 17 18 18 17 15 15 16 17 18 19 20 20 18 18 18 20 18 14 13 14 14 15 15 15
3 3 4 4 10 12 14 12 11 12 19 19 17 16 15 15 17 14 13 14 16 17 17 17 15 15 16 17 18 23 17 19 20 24 24 20 25 18 16 16 16 16 17 16 16
2 3 4 7 11 13 12 11 11 13 22 18 18 14 15 17 17 16 13 14 17 17 18 17 17 17 20 17 17 21 18 20 20 24 25 21 24 20 18 18 18 18 18 17 16
2 3 5 8 10 11 9 10 12 16 21 19 17 18 18 17 17 16 16 14 15 16 16 17 15 16 16 16 16 17 20 20 22 23 31 25 22 21 21 22 20 19 19 18 17
2 3 6 8 11 10 10 12 16 20 17 19 20 18 18 19 18 18 18 18 20 22 22 18 17 16 16 19 17 20 25 30 28 30 30 22 23 21 23 20 21 22 21 19 17
2 4 7 8 9 9 10 14 19 17 19 18 19 18 19 19 19 19 19 20 18 20 25 25 23 19 16 20 24 21 26 29 31 31 29 22 25 21 22 22 23 22 23 18 18
4 7 8 9 8 9 12 17 16 17 18 19 19 20 20 19 20 20 21 20 19 20 23 27 23 16 17 17 19 21 25 21 30 29 29 25 22 23 20 21 21 23 19 20 19
6 8 9 8 8 10 14 15 17 17 17 17 19 19 21 21 21 22 21 18 18 18 19 23 24 17 17 17 17 19 19 26 27 33 33 27 25 23 24 24 23 24 21 20 19
6 10 10 9 9 12 15 16 17 17 16 18 18 20 20 21 21 23 20 18 18 19 18 21 23 20 18 26 25 22 24 22 24 26 31 31 27 25 25 26 26 24 21 21 20
7 13 9 10 14 15 16 16 16 17 16 17 17 18 19 20 21 21 20 19 17 18 19 18 25 26 24 24 20 21 27 26 28 29 26 27 27 27 26 26 25 23 21 19 19
10 12 8 9 15 17 16 17 16 18 17 17 18 18 20 21 22 22 19 18 16 17 19 19 21 25 23 21 19 25 23 23 26 26 31 29 24 27 28 27 25 25 23 22 19
9 13 13 12 13 15 17 17 17 16 17 17 18 18 20 22 21 23 20 17 16 16 14 16 23 23 23 23 29 27 25 22 24 33 30 29 26 23 26 29 28 26 24 23 22
8 11 11 15 15 15 15 15 17 16 17 17 18 18 19 22 23 23 20 18 17 14 16 19 25 26 27 32 29 28 24 24 26 29 27 28 31 23 27 31 31 28 25 24 24
10 11 11 12 13 15 15 15 16 16 17 19 18 19 19 21 20 22 20 19 19 17 18 20 25 24 24 31 30 24 23 24 25 30 29 34 28 29 31 35 32 31 28 27 26
8 8 9 11 12 14 15 15 15 15 16 16 17 19 20 19 18 19 19 18 17 20 20 22 23 27 26 27 25 27 28 27 30 31 26 26 23 35 28 27 31 32 31 30 27